Location: La Coruña
(43.3623°N, 8.4115°W)
Time: 16:26:09
(UTC+01:00)

STARLINK-1069 - Pass Details

Date: 19 January 2020
Orbit: 349 x 351 km, 53.0° (Epoch: 18 February)

Event Time Altitude Azimuth Distance (km) Brightness Sun altitude
Rises 20:39:01 0° 280° (W) 2,163 7.9 -23.6°
Reaches altitude 10° 20:41:31 10° 302° (WNW) 1,322 6.2 -24.0°
Enters shadow 20:42:23 14° 318° (NW) 1,118 5.6 -24.2°
